Location: Unspecified
(0.0000°N, 0.0000°E)
Time: 03:19:00
(UTC+00:00)

ISS - Pass Details

Date: 02 February 2026
Orbit: 413 x 428 km, 51.6° (Epoch: 18 February)

Event Time Altitude Azimuth Distance (km) Brightness Sun altitude
Rises 19:41:22 0° 314° (NW) 2,361 0.4 -20.9°
Reaches altitude 10° 19:43:31 10° 307° (NW) 1,502 -0.5 -21.5°
Maximum altitude 19:46:44 42° 235° (SW) 619 -2.5 -22.2°
Enters shadow 19:48:17 25° 179° (S) 904 -2.0 -22.6°
